Terminal Aerodrome Forecast
Issued by NWS

Home | Current Version | Previous Version | Text Only | Print | Product List | Glossary On
Versions: 1 2 3 4 5 6 7 8 9 10 11 12 13 14 15 16 17 18 19 20 21 22 23 24 25 26 27 28 29
000
FTUS45 KBYZ 300538
TAFLVM
TAF
KLVM 300538Z 3006/3106 21019G31KT P6SM VCSH SKC
     FM300800 24012KT P6SM VCTS BKN080CB
     FM301200 24015KT P6SM VCSH BKN080
     FM301800 24018G28KT P6SM VCTS BKN080CB
     FM302200 25027G37KT P6SM VCSH BKN070=

USA.gov is the U.S. government's official web portal to all federal, state and local government web resources and services.